Hourly Weather Kiyaly

Today, 24 October, Saturday

Time Temperature Precipitation Wind Pressure Humidity
00:00 -7°C° 0 mm 4 mps 753 mmHg 67%
01:00 -7°C° 0 mm 4 mps 753 mmHg 66%
02:00 -7°C° 0 mm 4 mps 753 mmHg 65%
03:00 -7°C° 0 mm 4 mps 754 mmHg 66%
04:00 -7°C° 0 mm 4 mps 754 mmHg 66%
05:00 -7°C° 0 mm 3 mps 755 mmHg 67%
06:00 -7°C° 0 mm 3 mps 755 mmHg 66%
07:00 -6°C° 0 mm 3 mps 755 mmHg 66%
08:00 -6°C° 0 mm 3 mps 755 mmHg 66%
09:00 -5°C° 0 mm 3 mps 756 mmHg 60%
10:00 -4°C° 0 mm 3 mps 756 mmHg 54%
11:00 -2°C° 0 mm 3 mps 756 mmHg 48%
12:00 -2°C° 0 mm 4 mps 755 mmHg 45%
13:00 -2°C° 0 mm 4 mps 755 mmHg 42%
14:00 -1°C° 0 mm 4 mps 755 mmHg 39%
15:00 -1°C° 0 mm 4 mps 754 mmHg 44%
16:00 -2°C° 0 mm 4 mps 754 mmHg 49%
17:00 -2°C° 0 mm 5 mps 754 mmHg 54%
18:00 -2°C° 0 mm 5 mps 753 mmHg 57%
19:00 -2°C° 0 mm 5 mps 753 mmHg 61%
20:00 -3°C° 0 mm 6 mps 753 mmHg 64%
21:00 -2°C° 0 mm 6 mps 752 mmHg 64%
22:00 -2°C° 0 mm 6 mps 751 mmHg 64%
23:00 -2°C° 0 mm 6 mps 751 mmHg 65%

Tomorrow, 25 October, Sunday

Time Temperature Precipitation Wind Pressure Humidity
00:00 -2°C° 0.5 mm 7 mps 750 mmHg 75%
01:00 -3°C° 0.5 mm 7 mps 749 mmHg 85%
02:00 -4°C° 0.5 mm 8 mps 748 mmHg 96%
03:00 -4°C° 1.1 mm 8 mps 748 mmHg 96%
04:00 -4°C° 1.1 mm 8 mps 747 mmHg 97%
05:00 -4°C° 1.1 mm 8 mps 746 mmHg 97%
06:00 -2°C° 0.2 mm 7 mps 746 mmHg 97%
07:00 -1°C° 0.2 mm 6 mps 745 mmHg 96%
08:00 +1°C° 0.2 mm 6 mps 745 mmHg 96%
09:00 +2°C° 0.1 mm 6 mps 745 mmHg 96%
10:00 +2°C° 0.1 mm 6 mps 745 mmHg 97%
11:00 +3°C° 0.1 mm 6 mps 745 mmHg 97%
12:00 +4°C° 0 mm 6 mps 745 mmHg 96%
13:00 +4°C° 0 mm 6 mps 745 mmHg 95%
14:00 +5°C° 0 mm 6 mps 745 mmHg 94%
15:00 +5°C° 0 mm 6 mps 745 mmHg 93%
16:00 +5°C° 0 mm 5 mps 745 mmHg 93%
17:00 +5°C° 0 mm 5 mps 746 mmHg 92%
18:00 +5°C° 0.1 mm 5 mps 746 mmHg 92%
19:00 +5°C° 0.1 mm 4 mps 746 mmHg 92%
20:00 +5°C° 0.1 mm 4 mps 746 mmHg 92%
21:00 +5°C° 0 mm 4 mps 746 mmHg 93%
22:00 +5°C° 0 mm 3 mps 746 mmHg 93%
23:00 +5°C° 0 mm 3 mps 746 mmHg 94%

Day after tomorrow, 26 October, Monday

Time Temperature Precipitation Wind Pressure Humidity
00:00 +4°C° 0 mm 3 mps 745 mmHg 94%
01:00 +4°C° 0 mm 3 mps 745 mmHg 94%
02:00 +4°C° 0 mm 4 mps 744 mmHg 94%
03:00 +5°C° 0 mm 4 mps 744 mmHg 94%
04:00 +5°C° 0 mm 4 mps 743 mmHg 94%
05:00 +5°C° 0 mm 3 mps 743 mmHg 94%
06:00 +5°C° 0.5 mm 4 mps 742 mmHg 93%
07:00 +6°C° 0.5 mm 5 mps 741 mmHg 92%
08:00 +6°C° 0.5 mm 5 mps 740 mmHg 92%
09:00 +7°C° 0.4 mm 6 mps 739 mmHg 89%
10:00 +7°C° 0.4 mm 6 mps 739 mmHg 87%
11:00 +8°C° 0.4 mm 6 mps 738 mmHg 84%
12:00 +8°C° 0.1 mm 6 mps 737 mmHg 83%
13:00 +8°C° 0.1 mm 7 mps 736 mmHg 81%
14:00 +9°C° 0.1 mm 7 mps 735 mmHg 80%
15:00 +8°C° 0.2 mm 7 mps 734 mmHg 82%
16:00 +8°C° 0.2 mm 7 mps 733 mmHg 84%
17:00 +6°C° 0.2 mm 7 mps 731 mmHg 86%
18:00 +6°C° 0.4 mm 7 mps 731 mmHg 85%
19:00 +6°C° 0.4 mm 8 mps 731 mmHg 83%
20:00 +6°C° 0.4 mm 8 mps 730 mmHg 81%
21:00 +5°C° 0 mm 8 mps 730 mmHg 82%
22:00 +5°C° 0 mm 9 mps 731 mmHg 82%
23:00 +3°C° 0 mm 9 mps 731 mmHg 83%

, 27 October, Tuesday

Time Temperature Precipitation Wind Pressure Humidity
00:00 +2°C° 0 mm 9 mps 731 mmHg 83%
01:00 +1°C° 0 mm 9 mps 731 mmHg 82%
02:00 +1°C° 0 mm 10 mps 732 mmHg 82%
03:00 0°C° 0 mm 9 mps 732 mmHg 81%
04:00 -1°C° 0 mm 9 mps 732 mmHg 80%
05:00 -1°C° 0 mm 9 mps 733 mmHg 79%
06:00 -1°C° 0 mm 9 mps 733 mmHg 77%
07:00 -2°C° 0 mm 8 mps 733 mmHg 76%
08:00 -2°C° 0 mm 7 mps 734 mmHg 75%
09:00 -2°C° 0 mm 7 mps 734 mmHg 73%
10:00 -2°C° 0 mm 6 mps 734 mmHg 71%
11:00 -1°C° 0 mm 6 mps 734 mmHg 69%
12:00 0°C° 0 mm 5 mps 735 mmHg 69%
13:00 0°C° 0 mm 4 mps 735 mmHg 69%
14:00 0°C° 0 mm 4 mps 736 mmHg 68%
15:00 +1°C° 0 mm 3 mps 736 mmHg 72%
16:00 +2°C° 0 mm 2 mps 737 mmHg 76%
17:00 +2°C° 0 mm 2 mps 737 mmHg 79%
18:00 0°C° 0.3 mm 3 mps 738 mmHg 85%
19:00 -1°C° 0.3 mm 4 mps 739 mmHg 90%
20:00 -1°C° 0.3 mm 5 mps 739 mmHg 96%
21:00 -3°C° 0.5 mm 6 mps 740 mmHg 95%
22:00 -5°C° 0.5 mm 8 mps 741 mmHg 93%
23:00 -6°C° 0.5 mm 9 mps 741 mmHg 92%

27 October, Tuesday

Time Temperature Precipitation Wind Pressure Humidity
00:00 +2°C° 0 mm 9 mps 731 mmHg 83%
01:00 +1°C° 0 mm 9 mps 731 mmHg 82%
02:00 +1°C° 0 mm 10 mps 732 mmHg 82%
03:00 0°C° 0 mm 9 mps 732 mmHg 81%
04:00 -1°C° 0 mm 9 mps 732 mmHg 80%
05:00 -1°C° 0 mm 9 mps 733 mmHg 79%
06:00 -1°C° 0 mm 9 mps 733 mmHg 77%
07:00 -2°C° 0 mm 8 mps 733 mmHg 76%
08:00 -2°C° 0 mm 7 mps 734 mmHg 75%
09:00 -2°C° 0 mm 7 mps 734 mmHg 73%
10:00 -2°C° 0 mm 6 mps 734 mmHg 71%
11:00 -1°C° 0 mm 6 mps 734 mmHg 69%
12:00 0°C° 0 mm 5 mps 735 mmHg 69%
13:00 0°C° 0 mm 4 mps 735 mmHg 69%
14:00 0°C° 0 mm 4 mps 736 mmHg 68%
15:00 +1°C° 0 mm 3 mps 736 mmHg 72%
16:00 +2°C° 0 mm 2 mps 737 mmHg 76%
17:00 +2°C° 0 mm 2 mps 737 mmHg 79%
18:00 0°C° 0.3 mm 3 mps 738 mmHg 85%
19:00 -1°C° 0.3 mm 4 mps 739 mmHg 90%
20:00 -1°C° 0.3 mm 5 mps 739 mmHg 96%
21:00 -3°C° 0.5 mm 6 mps 740 mmHg 95%
22:00 -5°C° 0.5 mm 8 mps 741 mmHg 93%
23:00 -6°C° 0.5 mm 9 mps 741 mmHg 92%

28 October, Wednesday

Time Temperature Precipitation Wind Pressure Humidity
00:00 -6°C° 0.3 mm 9 mps 742 mmHg 92%
01:00 -6°C° 0.3 mm 9 mps 743 mmHg 91%
02:00 -8°C° 0.3 mm 9 mps 743 mmHg 90%
03:00 -7°C° 0.2 mm 8 mps 744 mmHg 90%
04:00 -7°C° 0.2 mm 8 mps 745 mmHg 89%
05:00 -8°C° 0.2 mm 8 mps 746 mmHg 88%
06:00 -8°C° 0.2 mm 8 mps 747 mmHg 89%
07:00 -8°C° 0.2 mm 8 mps 748 mmHg 89%
08:00 -10°C° 0.2 mm 8 mps 749 mmHg 89%
09:00 -10°C° 0.1 mm 8 mps 749 mmHg 87%
10:00 -10°C° 0.1 mm 8 mps 750 mmHg 85%
11:00 -9°C° 0.1 mm 7 mps 751 mmHg 83%
12:00 -9°C° 0.1 mm 7 mps 752 mmHg 84%
13:00 -9°C° 0.1 mm 7 mps 752 mmHg 85%
14:00 -9°C° 0.1 mm 7 mps 753 mmHg 86%
15:00 -9°C° 0.1 mm 7 mps 754 mmHg 86%
16:00 -9°C° 0.1 mm 7 mps 755 mmHg 85%
17:00 -11°C° 0.1 mm 7 mps 755 mmHg 85%
18:00 -11°C° 0 mm 7 mps 756 mmHg 84%
19:00 -10°C° 0 mm 6 mps 757 mmHg 84%
20:00 -10°C° 0 mm 6 mps 757 mmHg 83%
21:00 -10°C° 0 mm 6 mps 758 mmHg 82%
22:00 -10°C° 0 mm 6 mps 758 mmHg 82%
23:00 -10°C° 0 mm 6 mps 759 mmHg 81%

29 October, Thursday

Time Temperature Precipitation Wind Pressure Humidity
00:00 -11°C° 0 mm 6 mps 759 mmHg 83%
01:00 -11°C° 0 mm 5 mps 759 mmHg 84%
02:00 -11°C° 0 mm 5 mps 760 mmHg 86%
03:00 -12°C° 0 mm 5 mps 760 mmHg 86%
04:00 -11°C° 0 mm 4 mps 760 mmHg 87%
05:00 -11°C° 0 mm 4 mps 761 mmHg 88%
06:00 -12°C° 0 mm 4 mps 761 mmHg 88%
07:00 -12°C° 0 mm 4 mps 761 mmHg 88%
08:00 -12°C° 0 mm 4 mps 762 mmHg 88%
09:00 -11°C° 0 mm 4 mps 762 mmHg 85%
10:00 -10°C° 0 mm 4 mps 762 mmHg 82%
11:00 -9°C° 0 mm 3 mps 762 mmHg 78%
12:00 -9°C° 0 mm 4 mps 762 mmHg 77%
13:00 -8°C° 0 mm 4 mps 762 mmHg 75%
14:00 -8°C° 0 mm 4 mps 762 mmHg 73%
15:00 -8°C° 0 mm 4 mps 762 mmHg 75%
16:00 -8°C° 0 mm 4 mps 762 mmHg 76%
17:00 -8°C° 0 mm 4 mps 762 mmHg 77%
18:00 -8°C° 0 mm 5 mps 761 mmHg 75%
19:00 -7°C° 0 mm 5 mps 761 mmHg 73%
20:00 -8°C° 0 mm 6 mps 761 mmHg 70%
21:00 -8°C° 0.1 mm 7 mps 760 mmHg 75%
22:00 -8°C° 0.1 mm 7 mps 760 mmHg 79%
23:00 -8°C° 0.1 mm 8 mps 759 mmHg 84%
Show more